Weather History for Madison, MN

Change the Weather History Date:

Monday, February 17, 2014

  Actual Average (KAQP) Record (KAQP)
Temperature  
Mean Temperature 32 °F -  
Max Temperature 41 °F 26 °F 48 °F (2002)
Min Temperature 24 °F 9 °F -16 °F (2001)
Degree Days  
Heating Degree Days 32    
Moisture  
Dew Point 26 °F    
Average Humidity 79    
Maximum Humidity 93    
Minimum Humidity 65    
Precipitation  
Precipitation 0.08 in - - ()
Sea Level Pressure  
Sea Level Pressure 29.69 in    
Wind  
Wind Speed 13 mph (WSW)    
Max Wind Speed 20 mph    
Max Gust Speed 26 mph    
Visibility 8 miles    
Events Snow    
Averages and records for this station are not official NWS values.
T = Trace of Precipitation, MM = Missing Value Source: NWS Daily Summary

Daily Weather History Graph

Daily Weather History Graph

Search for Another Location

Airport:

Trip Planner

Search our weather history database for the weather conditions in past years. The results will help you decide how hot, cold, wet, or windy it might be!

Date:

Astronomy

Feb. 17, 2014 Rise Set
Actual Time 7:22 AM CST 5:55 PM CST
Civil Twilight 6:52 AM CST 6:25 PM CST
Nautical Twilight 6:18 AM CST 7:00 PM CST
Astronomical Twilight 5:44 AM CST 7:34 PM CST
Moon 9:01 PM CST (2/17) 8:14 AM CST (2/17)
Length of Visible Light 11h 33m
Length of Day
10h 33m
Waning Gibbous, 93% of the Moon is Illuminated
Feb 17
Waning Gibbous
Feb 22
Last Quarter
Mar 1
New
Mar 8
First Quarter
Mar 16
Full

Hourly Weather History & Observations

Time (CST) Temp. Windchill Dew Point Humidity Pressure Visibility Wind Dir Wind Speed Gust Speed Precip Events Conditions
12:13 AM 24.8 °F 11.1 °F 19.4 °F 80% 29.74 in 10.0 mi SE 18.4 mph - N/A   Scattered Clouds
12:34 AM 24.8 °F 10.7 °F 21.2 °F 86% 29.72 in 10.0 mi SE 19.6 mph - N/A   Clear
12:54 AM 26.6 °F 14.3 °F 21.2 °F 80% 29.73 in 10.0 mi SE 16.1 mph - N/A   Scattered Clouds
1:13 AM 26.6 °F 14.3 °F 21.2 °F 80% 29.72 in 10.0 mi SE 16.1 mph - N/A   Mostly Cloudy
1:34 AM 26.6 °F 14.3 °F 21.2 °F 80% 29.71 in 10.0 mi SE 16.1 mph - N/A   Mostly Cloudy
1:54 AM 26.6 °F 14.3 °F 21.2 °F 80% 29.70 in 10.0 mi SE 16.1 mph - N/A   Scattered Clouds
2:13 AM 26.6 °F 14.3 °F 21.2 °F 80% 29.69 in 10.0 mi SE 16.1 mph - N/A   Mostly Cloudy
2:34 AM 26.6 °F 13.8 °F 23.0 °F 86% 29.67 in 7.0 mi SE 17.3 mph - N/A   Mostly Cloudy
2:54 AM 26.6 °F 14.3 °F 24.8 °F 93% 29.66 in 2.0 mi SE 16.1 mph - N/A Snow Light Snow
3:13 AM 26.6 °F 14.3 °F 24.8 °F 93% 29.66 in 1.0 mi SE 16.1 mph - N/A Snow Snow
3:34 AM 26.6 °F 14.3 °F 24.8 °F 93% 29.65 in 0.8 mi SE 16.1 mph - 0.02 in Snow Snow
3:54 AM 26.6 °F 15.7 °F 24.8 °F 93% 29.64 in 1.2 mi SE 12.7 mph - 0.03 in Snow Light Snow
4:13 AM 26.6 °F 15.7 °F 24.8 °F 93% 29.63 in 1.5 mi SE 12.7 mph - 0.01 in Snow Light Snow
4:34 AM 26.6 °F 15.7 °F 24.8 °F 93% 29.63 in 1.5 mi SE 12.7 mph - 0.01 in Snow Light Snow
4:54 AM 28.4 °F 21.2 °F 26.6 °F 93% 29.63 in 0.8 mi SSE 6.9 mph 10.4 mph 0.02 in Snow Snow
5:13 AM 28.4 °F 24.6 °F 26.6 °F 93% 29.63 in 0.8 mi SE 3.5 mph - 0.01 in Snow Snow
5:34 AM 28.4 °F - 26.6 °F 93% 29.64 in 2.0 mi Calm Calm - 0.02 in Snow Light Snow
5:54 AM 28.4 °F 23.3 °F 26.6 °F 93% 29.66 in 3.0 mi West 4.6 mph - 0.03 in Snow Light Snow
6:13 AM 28.4 °F 23.3 °F 26.6 °F 93% 29.65 in 3.0 mi WNW 4.6 mph - N/A Snow Light Snow
6:34 AM 26.6 °F 15.2 °F 24.8 °F 93% 29.67 in 5.0 mi WNW 13.8 mph - N/A   Clear
6:54 AM 26.6 °F 15.7 °F 24.8 °F 93% 29.67 in 7.0 mi WNW 12.7 mph - N/A   Clear
7:13 AM 26.6 °F 16.8 °F 24.8 °F 93% 29.66 in 7.0 mi NW 10.4 mph - N/A   Scattered Clouds
7:34 AM 26.6 °F 17.5 °F 24.8 °F 93% 29.67 in 7.0 mi WNW 9.2 mph - N/A   Scattered Clouds
7:54 AM 26.6 °F 16.8 °F 24.8 °F 93% 29.67 in 7.0 mi WNW 10.4 mph - N/A   Mostly Cloudy
8:13 AM 28.4 °F 19.1 °F 24.8 °F 86% 29.67 in 10.0 mi West 10.4 mph - N/A   Scattered Clouds
8:34 AM 28.4 °F 19.7 °F 24.8 °F 86% 29.67 in 10.0 mi West 9.2 mph - N/A   Scattered Clouds
8:54 AM 28.4 °F 19.1 °F 24.8 °F 86% 29.68 in 10.0 mi West 10.4 mph - N/A   Scattered Clouds
9:13 AM 28.4 °F 21.2 °F 24.8 °F 86% 29.70 in 10.0 mi West 6.9 mph - N/A   Clear
9:34 AM 28.4 °F 21.2 °F 24.8 °F 86% 29.70 in 10.0 mi WNW 6.9 mph - N/A   Clear
9:54 AM 30.2 °F 24.3 °F 24.8 °F 80% 29.69 in 10.0 mi WNW 5.8 mph - N/A   Clear
10:13 AM 30.2 °F 24.3 °F 24.8 °F 80% 29.69 in 10.0 mi West 5.8 mph - N/A   Clear
10:34 AM 33.8 °F 24.3 °F 26.6 °F 75% 29.70 in 10.0 mi WNW 13.8 mph - N/A   Clear
10:54 AM 35.6 °F 25.5 °F 26.6 °F 70% 29.70 in 10.0 mi WNW 17.3 mph - N/A   Clear
11:13 AM 35.6 °F 25.5 °F 26.6 °F 70% 29.71 in 5.0 mi WNW 17.3 mph 21.9 mph N/A   Haze
11:34 AM 35.6 °F 25.9 °F 28.4 °F 75% 29.71 in 10.0 mi WNW 16.1 mph - N/A   Clear
11:54 AM 37.4 °F 27.8 °F 26.6 °F 65% 29.72 in 10.0 mi WNW 17.3 mph 23.0 mph N/A   Clear
12:13 PM 37.4 °F 27.5 °F 26.6 °F 65% 29.72 in 10.0 mi WNW 18.4 mph - N/A   Clear
12:34 PM 37.4 °F 27.8 °F 28.4 °F 70% 29.71 in 10.0 mi WNW 17.3 mph 21.9 mph N/A   Clear
12:53 PM 37.4 °F 28.5 °F 28.4 °F 70% 29.71 in 10.0 mi WNW 15.0 mph - N/A   Clear
1:13 PM 39.2 °F 30.8 °F 28.4 °F 65% 29.71 in 10.0 mi WNW 15.0 mph - N/A   Clear
1:34 PM 39.2 °F 30.5 °F 28.4 °F 65% 29.72 in 10.0 mi WNW 16.1 mph - N/A   Clear
1:53 PM 39.2 °F 30.2 °F 28.4 °F 65% 29.72 in 10.0 mi WNW 17.3 mph 26.5 mph N/A   Clear
2:13 PM 39.2 °F 30.5 °F 28.4 °F 65% 29.71 in 10.0 mi WNW 16.1 mph 21.9 mph N/A   Clear
2:34 PM 39.2 °F 30.2 °F 30.2 °F 70% 29.71 in 10.0 mi WNW 17.3 mph - N/A   Clear
2:53 PM 41.0 °F 31.9 °F 30.2 °F 65% 29.71 in 10.0 mi WNW 19.6 mph - N/A   Clear
3:13 PM 41.0 °F 33.5 °F 30.2 °F 65% 29.72 in 10.0 mi WNW 13.8 mph - N/A   Clear
3:34 PM 41.0 °F 33.5 °F 30.2 °F 65% 29.73 in 10.0 mi WNW 13.8 mph - N/A   Clear
3:54 PM 41.0 °F 33.1 °F 30.2 °F 65% 29.73 in 10.0 mi WNW 15.0 mph - N/A   Clear
4:13 PM 41.0 °F 34.3 °F 30.2 °F 65% 29.73 in 10.0 mi West 11.5 mph - N/A   Clear
4:34 PM 39.2 °F 31.6 °F 30.2 °F 70% 29.73 in 10.0 mi West 12.7 mph - N/A   Clear
4:54 PM 39.2 °F 32.5 °F 30.2 °F 70% 29.73 in 10.0 mi West 10.4 mph - N/A   Clear
5:13 PM 39.2 °F 34.2 °F 30.2 °F 70% 29.73 in 10.0 mi West 6.9 mph - N/A   Clear
5:34 PM 37.4 °F 31.4 °F 28.4 °F 70% 29.74 in 10.0 mi West 8.1 mph - N/A   Clear
5:53 PM 35.6 °F 28.6 °F 28.4 °F 75% 29.74 in 10.0 mi West 9.2 mph - N/A   Clear
6:00 PM 35.6 °F 29.2 °F 28.4 °F 75% 29.74 in 10.0 mi West 8.1 mph - N/A   Clear
6:34 PM 37.4 °F 30.8 °F 28.4 °F 70% 29.74 in 10.0 mi WSW 9.2 mph - N/A   Clear
6:53 PM 37.4 °F 32.1 °F 28.4 °F 70% 29.74 in 10.0 mi SW 6.9 mph - N/A   Clear
7:14 PM 32.0 °F 25.6 °F 26.6 °F 80% 29.73 in 10.0 mi SW 6.9 mph - N/A   Clear
7:34 PM 32.0 °F 24.8 °F 26.6 °F 80% 29.72 in 10.0 mi SW 8.1 mph - N/A   Clear
7:53 PM 30.2 °F 22.6 °F 26.6 °F 86% 29.71 in 10.0 mi SSW 8.1 mph - N/A   Clear
8:14 PM 30.2 °F 24.3 °F 24.8 °F 80% 29.70 in 10.0 mi SSW 5.8 mph - N/A   Clear
8:34 PM 30.2 °F 23.4 °F 24.8 °F 80% 29.70 in 10.0 mi South 6.9 mph - N/A   Clear
8:53 PM 30.2 °F 22.6 °F 24.8 °F 80% 29.70 in 10.0 mi South 8.1 mph - N/A   Clear
9:14 PM 28.4 °F 20.4 °F 24.8 °F 86% 29.69 in 10.0 mi South 8.1 mph - N/A   Clear
9:34 PM 30.2 °F 22.6 °F 24.8 °F 80% 29.68 in 10.0 mi South 8.1 mph - N/A   Clear
9:53 PM 30.2 °F 22.6 °F 24.8 °F 80% 29.68 in 10.0 mi South 8.1 mph - N/A   Clear
10:14 PM 30.2 °F 22.6 °F 24.8 °F 80% 29.67 in 10.0 mi South 8.1 mph - N/A   Clear
10:34 PM 28.4 °F 22.2 °F 24.8 °F 86% 29.67 in 10.0 mi South 5.8 mph - N/A   Clear
10:53 PM 28.4 °F 20.4 °F 23.0 °F 80% 29.66 in 10.0 mi South 8.1 mph - N/A   Clear
11:14 PM 32.0 °F 24.2 °F 24.8 °F 75% 29.65 in 10.0 mi South 9.2 mph - N/A   Clear
11:34 PM 30.2 °F 21.9 °F 23.0 °F 75% 29.64 in 10.0 mi South 9.2 mph - N/A   Clear
11:53 PM 30.2 °F 20.8 °F 24.8 °F 80% 29.64 in 10.0 mi South 11.5 mph - N/A   Clear